Change the Weather History Date:

Sunday, June 16, 2013

  Actual Average Record
Temperature  
Mean Temperature 55 °F -  
Max Temperature 62 °F 65 °F 71 °F (2002)
Min Temperature 48 °F 53 °F 42 °F (2001)
Degree Days  
Heating Degree Days 10    
Growing Degree Days 5 (Base 50)    
Moisture  
Dew Point 47 °F    
Average Humidity 76    
Maximum Humidity 94    
Minimum Humidity 54    
Precipitation  
Precipitation 0.00 in - - ()
Sea Level Pressure  
Sea Level Pressure 29.66 in    
Wind  
Wind Speed 7 mph ()    
Max Wind Speed 14 mph    
Max Gust Speed -    
Visibility 6.1 miles    
Events Rain    
Averages and records for this station are not official NWS values.
T = Trace of Precipitation, MM = Missing Value Source: Averaged Metar Reports

Daily Weather History Graph

Daily Weather History Graph

Search for Another Location

Airport or City:

Trip Planner

Search our weather history database for the weather conditions in past years. The results will help you decide how hot, cold, wet, or windy it might be!

Date:

Astronomy

Jun. 16, 2013 Rise Set
Actual Time 3:59 AM CEST 10:35 PM CEST
Civil Twilight 2:28 AM CEST 12:07 AM CEST
Nautical Twilight Sun does not rise Sun does not rise
Astronomical Twilight Sun does not rise Sun does not rise
Moon 1:09 PM CEST (6/16) 12:49 AM CEST (6/16)
Length of Visible Light 21h 39m
Length of Day
18h 36m
Waxing Crescent, 47% of the Moon is Illuminated
Jun 16
Waxing Crescent
Jun 16
First Quarter
Jun 23
Full
Jun 30
Last Quarter
Jul 8
New

Hourly Weather History & Observations

Time (CEST) Temp. Dew Point Humidity Pressure Visibility Wind Dir Wind Speed Gust Speed Precip Events Conditions
12:20 AM 51.8 °F 50.0 °F 94% 29.65 in - East 3.5 mph - N/A Rain Rain
12:50 AM 51.8 °F 50.0 °F 94% 29.65 in 3.1 mi SSE 3.5 mph - N/A Rain Light Rain
1:20 AM 51.8 °F 50.0 °F 94% 29.65 in 6.2 mi SSE 9.2 mph - N/A   Overcast
1:50 AM 51.8 °F 48.2 °F 88% 29.62 in 6.2 mi SW 8.1 mph - N/A   Overcast
2:00 AM 51 °F 49 °F 90% 29.65 in 28 mi SW 8.9 mph - - Rain Rain
2:20 AM 50.0 °F 48.2 °F 94% 29.62 in 6.2 mi WSW 3.5 mph - N/A   Overcast
2:50 AM 51.8 °F 50.0 °F 94% 29.62 in 6.2 mi East 3.5 mph - N/A   Overcast
3:20 AM 51.8 °F 48.2 °F 88% 29.62 in 6.2 mi SSW 3.5 mph - N/A   Mostly Cloudy
3:50 AM 50.0 °F 48.2 °F 94% 29.62 in 6.2 mi South 4.6 mph - N/A   Scattered Clouds
4:20 AM 48.2 °F 46.4 °F 93% 29.62 in 6.2 mi SSE 5.8 mph - N/A   Scattered Clouds
4:50 AM 48.2 °F 46.4 °F 93% 29.62 in 6.2 mi South 4.6 mph - N/A   Mostly Cloudy
5:20 AM 50.0 °F 46.4 °F 87% 29.62 in 6.2 mi SSW 6.9 mph - N/A   Partly Cloudy
5:50 AM 50.0 °F 46.4 °F 87% 29.62 in 6.2 mi SSW 6.9 mph - N/A   Scattered Clouds
6:20 AM 50.0 °F 44.6 °F 82% 29.62 in 6.2 mi SSW 6.9 mph - N/A   Scattered Clouds
6:50 AM 53.6 °F 44.6 °F 72% 29.62 in 6.2 mi SSW 10.4 mph - N/A   Scattered Clouds
7:20 AM 51.8 °F 44.6 °F 76% 29.65 in 6.2 mi SSW 6.9 mph - N/A   Mostly Cloudy
7:50 AM 51.8 °F 44.6 °F 76% 29.65 in 6.2 mi SSW 13.8 mph - N/A   Mostly Cloudy
8:00 AM 51 °F 44 °F 70% 29.66 in 25 mi SSW 13.4 mph - - Rain Drizzle
8:20 AM 51.8 °F 44.6 °F 76% 29.65 in 6.2 mi SSW 13.8 mph - N/A   Mostly Cloudy
9:20 AM 51.8 °F 46.4 °F 82% 29.65 in 6.2 mi SSW 11.5 mph - N/A   Light Drizzle
9:50 AM 51.8 °F 46.4 °F 82% 29.65 in 6.2 mi SSW 10.4 mph - N/A Rain Light Rain
10:20 AM 50.0 °F 46.4 °F 87% 29.65 in 6.2 mi SSW 8.1 mph - N/A Rain Light Rain
10:50 AM 50.0 °F 46.4 °F 87% 29.65 in 6.2 mi South 9.2 mph - N/A Rain Light Rain
11:20 AM 50.0 °F 46.4 °F 87% 29.65 in 6.2 mi South 3.5 mph - N/A Rain Light Rain
11:50 AM 55.4 °F 48.2 °F 77% 29.65 in 6.2 mi South 6.9 mph - N/A   Mostly Cloudy
12:20 PM 57.2 °F 48.2 °F 72% 29.65 in 6.2 mi South 8.1 mph - N/A   Scattered Clouds
12:50 PM 57.2 °F 48.2 °F 72% 29.65 in 6.2 mi South 6.9 mph - N/A   Scattered Clouds
1:20 PM 57.2 °F 44.6 °F 63% 29.65 in 6.2 mi SSW 9.2 mph - N/A   Scattered Clouds
1:50 PM 57.2 °F 46.4 °F 67% 29.65 in 6.2 mi SSW 12.7 mph - N/A   Scattered Clouds
2:00 PM 56 °F 46 °F 60% 29.68 in 22 mi SSW 11.2 mph - -   Clear
2:20 PM 59.0 °F 46.4 °F 63% 29.65 in 6.2 mi South 11.5 mph - N/A   Scattered Clouds
2:50 PM 59.0 °F 46.4 °F 63% 29.65 in 6.2 mi SSW 9.2 mph - N/A   Scattered Clouds
3:20 PM 59.0 °F 44.6 °F 59% 29.65 in 6.2 mi SSW 8.1 mph - N/A   Scattered Clouds
3:50 PM 57.2 °F 46.4 °F 67% 29.65 in 6.2 mi SSW 9.2 mph - N/A   Scattered Clouds
4:20 PM 59.0 °F 46.4 °F 63% 29.65 in 6.2 mi South 6.9 mph - N/A   Scattered Clouds
4:50 PM 62.6 °F 46.4 °F 55% 29.65 in 6.2 mi Variable 3.5 mph - N/A   Partly Cloudy
5:20 PM 60.8 °F 44.6 °F 55% 29.65 in 6.2 mi Variable 5.8 mph - N/A   Partly Cloudy
5:50 PM 60.8 °F 46.4 °F 59% 29.65 in 6.2 mi SSW 5.8 mph - N/A   Scattered Clouds
6:20 PM 60.8 °F 46.4 °F 59% 29.65 in - South 8.1 mph - N/A   Clear
6:50 PM 59.0 °F 44.6 °F 59% 29.68 in - SSW 8.1 mph - N/A   Clear
7:20 PM 59.0 °F 44.6 °F 59% 29.68 in - SSW 5.8 mph - N/A   Clear
7:50 PM 59.0 °F 46.4 °F 63% 29.68 in - SSW 8.1 mph - N/A   Clear
8:00 PM 58 °F 46 °F 54% 29.70 in 22 mi South 8.9 mph - -   Clear
8:20 PM 57.2 °F 46.4 °F 67% 29.68 in - SSW 9.2 mph - N/A   Clear
8:50 PM 57.2 °F 48.2 °F 72% 29.68 in - SSW 9.2 mph - N/A   Clear
9:20 PM 55.4 °F 48.2 °F 77% 29.71 in - SSW 9.2 mph - N/A   Clear
9:50 PM 55.4 °F 48.2 °F 77% 29.71 in - SSW 9.2 mph - N/A   Clear
10:20 PM 53.6 °F 48.2 °F 82% 29.71 in - SSW 6.9 mph - N/A   Clear
10:50 PM 51.8 °F 48.2 °F 88% 29.74 in - SSW 8.1 mph - N/A   Clear
11:20 PM 51.8 °F 48.2 °F 88% 29.74 in - SSW 8.1 mph - N/A   Clear
11:50 PM 51.8 °F 48.2 °F 88% 29.74 in 6.2 mi SSW 8.1 mph - N/A   Unknown